Regional Weather Roundup
Issued by NWS Sioux Falls, SD

Home | Current Version | Previous Version | Text Only | Print | Product List | Glossary Off
Versions: 1 2 3 4 5 6 7 8 9 10 11 12 13 14 15 16 17 18 19 20 21 22 23 24 25 26 27 28 29 30 31 32 33 34 35 36 37 38 39 40 41 42 43 44 45 46 47 48 49 50

000
ASUS43 KFSD 230210
RWRFSD

WEATHER ROUNDUP FOR SE SOUTH DAKOTA/SW MINNESOTA/NW IOWA
NATIONAL WEATHER SERVICE SIOUX FALLS SD
800 PM CST MON JAN 22 2018

NOTE: "FAIR" INDICATES FEW OR NO CLOUDS BELOW 12,000 FEET WITH NO
SIGNIFICANT WEATHER AND OR OBSTRUCTIONS TO VISIBILITY.


SDZ038>040-050-052>070-230300-
SOUTHEAST SOUTH DAKOTA

CITY           SKY/WX    TMP DP  RH WIND       PRES   REMARKS
BROOKINGS      CLOUDY    25  22  88 N23       29.90R WCI  10
CHAMBERLAIN    CLOUDY    25  24  96 NW13      30.01R WCI  13
HURON          CLOUDY    23  22  96 N12       30.00R WCI  12
MADISON        LGT RAIN  25  25 100 N23G30    29.90R WCI  10
MITCHELL       CLOUDY    25  23  92 N22       29.99R WCI  10
SIOUX FALLS    CLOUDY    28  24  85 N24G33    29.87R WCI  14
WINNER         MIX PCPN  24  22  91 N16       30.01R FOG     WCI  11
YANKTON        FLURRIES  26  23  88 NW23G29   29.91R WCI  11
$$

MNZ071-072-080-081-089-090-097-098-230300-
SOUTHWEST MINNESOTA

CITY           SKY/WX    TMP DP  RH WIND       PRES   REMARKS
FAIRMONT       LGT SNOW  27  26  96 N25G35    29.73R FOG     WCI  12
JACKSON        CLOUDY    28  27  93 N17G24    29.75R WCI  16
LUVERNE        CLOUDY    28  23  80 N21G30    29.84R WCI  15
MARSHALL       CLOUDY    28  23  81 N24G31    29.86R WCI  14
MONTEVIDEO     CLOUDY    28  23  80 N24G30    29.89S WCI  14
PIPESTONE      CLOUDY    25  21  86 N17G28    29.84R WCI  11
REDWOOD FALLS  CLOUDY    30  24  78 N14G24    29.82R WCI  19
TRACY          CLOUDY    29  26  87 N17G25    29.84R WCI  17
WINDOM         LGT SNOW  28  16  59 NW28      29.77R WCI  13
WORTHINGTON    LGT SNOW  26  25  96 N33G40    29.77R FOG     WCI   9
$$

IAZ001>003-012>014-020>022-031-032-NEZ013-014-SDZ071-230300-
NORTHWEST IOWA

CITY           SKY/WX    TMP DP  RH WIND       PRES   REMARKS
CHEROKEE       CLOUDY    29  27  94 N24G37    29.76R FOG     WCI  15
DENISON        CLOUDY    28  27  93 N26G36    29.73R WCI  13
ESTHERVILLE    FOG       26  26 100 N31G39    29.72R VSB 1   WCI   9
LE MARS        DRIZZLE   28  27  93 N23G32    29.81R WCI  14
ORANGE CITY    CLOUDY    28  27  93 N20G31    29.80R WCI  15
SHELDON        LGT SNOW  27  27 100 N28G35    29.77R WCI  11
SIOUX CITY     LGT SNOW  29  26  89 N24G32    29.82R FOG     WCI  15
SPENCER        CLOUDY    29  26  89 N29G38    29.74R FOG     WCI  14
STORM LAKE     LGT SNOW  28  27  93 N32G41    29.71R WCI  12
$$

ABBREVIATIONS USED IN REMARKS
   TC - TEMPERATURE IN CELSIUS
  WCI - WIND CHILL INDEX
   HX - HEAT INDEX
  VSB - VISIBILITY





USA.gov is the U.S. government's official web portal to all federal, state and local government web resources and services.